Santa Ana, CA

12:00 PM PST on February 13, 2016 (GMT -0800)
John Wayne-Orange County

Weather History for KSNA - October, 2012

Change the Weather History Date:

Tuesday, October 9, 2012

  Actual Average Record
Temperature  
Mean Temperature 72 °F 68 °F  
Max Temperature 77 °F 76 °F 103 °F (2015)
Min Temperature 67 °F 60 °F 55 °F (2007)
Degree Days  
Heating Degree Days 0 0  
Month to date heating degree days 0 0  
Since 1 July heating degree days 0 1  
Cooling Degree Days 7 3  
Month to date cooling degree days 82 34  
Year to date cooling degree days 1172 802  
Growing Degree Days 22 (Base 50)    
Moisture  
Dew Point 58 °F    
Average Humidity 63    
Maximum Humidity 76    
Minimum Humidity 50    
Precipitation  
Precipitation 0.00 in 0.02 in 0.17 in (2013)
Month to date precipitation 0.00 0.10  
Year to date precipitation 4.03 9.35  
Since 1 July precipitation 0.16  
Snow  
Snow 0.00 in - - ()
Month to date snowfall 0.0  
Year to date snowfall 0.0  
Snow Depth 0.00 in    
Sea Level Pressure  
Sea Level Pressure 29.96 in    
Wind  
Wind Speed 4 mph (SW)    
Max Wind Speed 12 mph    
Max Gust Speed 17 mph    
Visibility 10 miles    
Events      
T = Trace of Precipitation, MM = Missing Value Source: NWS Daily Summary

Daily Weather History Graph

Daily Weather History Graph

Search for Another Location

Airport or City:

Trip Planner

Search our weather history database for the weather conditions in past years. The results will help you decide how hot, cold, wet, or windy it might be!

Date:

Astronomy

Oct. 09, 2012 Rise Set
Actual Time 6:52 AM PDT 6:24 PM PDT
Civil Twilight 6:27 AM PDT 6:49 PM PDT
Nautical Twilight 5:58 AM PDT 7:18 PM PDT
Astronomical Twilight 5:29 AM PDT 7:47 PM PDT
Moon 12:49 AM PDT (10/9) 2:39 PM PDT (10/9)
Length of Visible Light 12h 22m
Length of Day
11h 32m
Waning Crescent, 35% of the Moon is Illuminated
Oct 9
Waning Crescent
Oct 15
New
Oct 21
First Quarter
Oct 29
Full
Nov 6
Last Quarter

Hourly Weather History & Observations

Time (PDT) Temp. Dew Point Humidity Pressure Visibility Wind Dir Wind Speed Gust Speed Precip Events Conditions
12:06 AM 66.2 °F 59.0 °F 78% 29.97 in 10.0 mi Calm Calm - N/A   Mostly Cloudy
1:53 AM 69.1 °F 60.1 °F 73% 29.97 in 10.0 mi Calm Calm - N/A   Overcast
2:53 AM 69.1 °F 59.0 °F 70% 29.96 in 10.0 mi Calm Calm - N/A   Overcast
3:53 AM 69.1 °F 57.9 °F 68% 29.95 in 10.0 mi Calm Calm - N/A   Overcast
4:53 AM 69.1 °F 57.9 °F 68% 29.95 in 10.0 mi Calm Calm - N/A   Overcast
5:20 AM 68.0 °F 57.2 °F 68% 29.96 in 10.0 mi Calm Calm - N/A   Scattered Clouds
5:31 AM 68.0 °F 57.2 °F 68% 29.96 in 10.0 mi Calm Calm - N/A   Mostly Cloudy
5:53 AM 68.0 °F 57.9 °F 70% 29.96 in 10.0 mi Calm Calm - N/A   Mostly Cloudy
6:53 AM 68.0 °F 57.9 °F 70% 29.97 in 10.0 mi SSE 5.8 mph - N/A   Mostly Cloudy
7:53 AM 68.0 °F 57.0 °F 68% 29.98 in 10.0 mi SE 5.8 mph - N/A   Mostly Cloudy
8:29 AM 69.8 °F 57.2 °F 64% 29.99 in 10.0 mi SE 4.6 mph - N/A   Mostly Cloudy
8:53 AM 69.1 °F 57.0 °F 65% 29.99 in 10.0 mi ESE 4.6 mph - N/A   Mostly Cloudy
9:53 AM 71.1 °F 57.0 °F 61% 29.99 in 10.0 mi Calm Calm - N/A   Mostly Cloudy
10:53 AM 72.0 °F 57.0 °F 59% 29.99 in 10.0 mi West 4.6 mph - N/A   Mostly Cloudy
11:53 AM 73.9 °F 57.0 °F 55% 29.97 in 10.0 mi Calm Calm - N/A   Scattered Clouds
12:53 PM 77.0 °F 57.9 °F 52% 29.96 in 10.0 mi SSW 9.2 mph - N/A   Scattered Clouds
1:53 PM 75.0 °F 57.9 °F 55% 29.94 in 10.0 mi SSW 6.9 mph - N/A   Mostly Cloudy
2:53 PM 75.9 °F 59.0 °F 56% 29.93 in 10.0 mi SSW 10.4 mph - N/A   Mostly Cloudy
3:53 PM 75.0 °F 59.0 °F 57% 29.92 in 10.0 mi SW 6.9 mph - N/A   Mostly Cloudy
4:53 PM 73.0 °F 57.9 °F 59% 29.92 in 10.0 mi WSW 8.1 mph - N/A   Scattered Clouds
5:53 PM 71.1 °F 59.0 °F 66% 29.92 in 10.0 mi WSW 5.8 mph - N/A   Mostly Cloudy
6:53 PM 70.0 °F 60.1 °F 71% 29.94 in 10.0 mi WSW 6.9 mph - N/A   Mostly Cloudy
7:53 PM 70.0 °F 59.0 °F 68% 29.95 in 10.0 mi WSW 3.5 mph - N/A   Overcast
8:53 PM 70.0 °F 59.0 °F 68% 29.96 in 10.0 mi SW 3.5 mph - N/A   Mostly Cloudy
9:53 PM 70.0 °F 59.0 °F 68% 29.97 in 10.0 mi Calm Calm - N/A   Mostly Cloudy
10:53 PM 69.1 °F 57.9 °F 68% 29.97 in 10.0 mi West 3.5 mph - N/A   Mostly Cloudy
11:53 PM 69.1 °F 55.9 °F 63% 29.97 in 10.0 mi WNW 3.5 mph - N/A   Overcast